15min,AgWx,beryljct,423,12SEP2021:00:00:00,63.0,12.85,56.2,56.9,60.0,64.2,56.8,58,64,43,0.999,45.0,47.3,41.3,3.551,2.8,105,73,6.7,-0.00001,0.00002,64.9,66.0,22,0,0,.,13.70,0.00,0.00
15min,AgWx,beryljct,423,12SEP2021:00:15:00,61.8,12.84,59.6,58.1,56.6,58.1,55.8,68,70,63,1.037,46.0,46.8,44.7,5.634,2.8,76,9.3,5.6,-0.00006,-0.00006,64.8,65.9,22,0,0,.,13.70,0.00,0.00
15min,AgWx,beryljct,423,12SEP2021:00:30:00,61.2,12.84,61.6,60.9,59.5,60.9,58.3,61,62,57,1.040,46.1,46.9,45.4,1.337,3.3,48,12,5.7,0.00002,0.00006,64.7,65.9,22,0,0,.,13.70,0.00,0.00
15min,AgWx,beryljct,423,12SEP2021:00:45:00,61.0,12.82,62.4,61.9,61.2,62.2,60.2,57,59,55,1.076,45.8,46.5,45.3,2.148,1.2,335,51,3.1,-0.00019,-0.00026,64.6,65.9,22,0,0,.,13.70,0.00,0.00
15min,AgWx,beryljct,423,12SEP2021:01:00:00,60.9,12.8,59.0,59.2,60.6,62.0,59.2,62,67,57,1.155,47.6,48.4,46.5,0.614,2.1,70,15,4.3,-0.00010,-0.00011,64.5,65.9,22,0,0,.,13.71,0.00,0.00
15min,AgWx,beryljct,423,12SEP2021:01:15:00,60.7,12.82,60.7,60.3,59.8,60.5,59.0,67,68,65,1.190,48.9,49.4,48.4,1.162,0.4,76,0.0,1.6,-0.00031,-0.00047,64.4,65.8,22,0,0,.,13.71,0.00,0.00
15min,AgWx,beryljct,423,12SEP2021:01:30:00,60.4,12.82,60.8,60.2,60.5,61.7,59.2,67,70,65,1.213,49.5,49.9,48.9,1.118,1.1,146,68,3.4,-0.00021,-0.00030,64.3,65.8,22,0,0,.,13.71,0.00,0.00
15min,AgWx,beryljct,423,12SEP2021:01:45:00,60.3,12.79,62.2,61.7,60.9,61.7,60.1,67,69,64,1.203,49.7,50.2,49.3,3.223,2.4,280,41,5.0,-0.00009,-0.00009,64.2,65.8,22,0,0,.,13.71,0.00,0.00
15min,AgWx,beryljct,423,12SEP2021:02:00:00,60.1,12.79,60.5,60.2,60.0,61.8,58.4,68,71,64,1.194,49.3,49.6,48.9,1.622,2.6,308,7.2,4.1,-0.00007,-0.00007,64.1,65.7,23,0,0,.,13.71,0.00,0.00
15min,AgWx,beryljct,423,12SEP2021:02:15:00,59.7,12.78,60.0,59.4,59.2,60.5,57.8,69,73,66,1.184,49.2,49.6,48.7,3.31,2.7,304,3.0,4.0,-0.00008,-0.00008,64.0,65.7,22,0,0,.,13.71,0.00,0.00
15min,AgWx,beryljct,423,12SEP2021:02:30:00,59.3,12.79,57.5,57.8,59.5,61.0,57.8,68,71,65,1.147,48.9,49.7,48.1,4.384,4.1,317,14,5.8,0.00002,0.00006,63.8,65.6,22,0,0,.,13.71,0.00,0.00
15min,AgWx,beryljct,423,12SEP2021:02:45:00,59.0,12.78,58.3,57.7,57.7,58.6,56.8,72,75,71,1.196,48.9,49.6,48.2,5.875,4.2,314,7.9,6.2,-0.00000,0.00002,63.8,65.6,22,0,0,.,13.71,0.00,0.00
15min,AgWx,beryljct,423,12SEP2021:03:00:00,58.6,12.78,57.3,57.2,57.4,58.3,56.5,74,76,72,1.194,49.2,50.0,48.7,5.722,4.5,311,6.7,6.3,0.00000,0.00003,63.7,65.6,22,0,0,.,13.71,0.00,0.00
15min,AgWx,beryljct,423,12SEP2021:03:15:00,58.4,12.77,61.2,60.1,58.6,60.2,57.2,72,75,69,1.229,49.8,50.3,49.3,4.231,5.1,310,5.2,6.4,0.00005,0.00009,63.6,65.5,22,0,0,.,13.71,0.00,0.00
15min,AgWx,beryljct,423,12SEP2021:03:30:00,58.6,12.76,58.6,58.3,59.3,60.4,58.3,71,73,68,1.217,49.8,50.2,49.6,5.064,4.5,315,6.0,5.4,0.00003,0.00007,63.5,65.5,22,0,0,.,13.71,0.00,0.00
15min,AgWx,beryljct,423,12SEP2021:03:45:00,58.6,12.75,57.7,58.2,58.7,59.7,58.1,72,74,69,1.208,49.8,50.0,49.4,2.74,4.2,314,6.3,5.9,0.00000,0.00003,63.4,65.4,22,0,0,.,13.71,0.00,0.00
15min,AgWx,beryljct,423,12SEP2021:04:00:00,58.4,12.75,57.3,57.5,57.9,58.5,57.4,73,74,71,1.171,49.2,49.7,48.6,2.126,3.2,314,6.8,4.2,-0.00006,-0.00005,63.3,65.4,23,0,0,.,13.72,0.00,0.00
15min,AgWx,beryljct,423,12SEP2021:04:15:00,57.8,12.72,54.2,55.8,56.3,57.4,55.5,75,79,72,1.131,48.5,49.6,47.5,1.206,1.2,22,31,2.0,-0.00021,-0.00030,63.3,65.4,23,0,0,.,13.71,0.00,0.00
15min,AgWx,beryljct,423,12SEP2021:04:30:00,56.9,12.71,53.1,52.7,53.6,55.7,52.6,81,83,75,1.124,48.0,48.5,47.6,0,0.6,72,30,3.0,-0.00026,-0.00039,63.2,65.3,22,0,0,.,13.72,0.00,0.00
15min,AgWx,beryljct,423,12SEP2021:04:45:00,55.9,12.73,50.9,51.7,52.4,53.0,51.7,83,85,81,1.078,47.3,47.9,46.6,2.411,2.0,196,24,3.4,-0.00017,-0.00022,63.1,65.3,22,0,0,.,13.71,0.00,0.00
15min,AgWx,beryljct,423,12SEP2021:05:00:00,54.9,12.71,53.8,52.4,51.4,52.4,50.7,85,87,82,1.122,46.9,48.1,46.2,1.03,1.4,202,0.2,3.1,-0.00021,-0.00029,63.0,65.2,22,0,0,.,13.71,0.00,0.00
15min,AgWx,beryljct,423,12SEP2021:05:15:00,54.1,12.69,52.8,52.7,52.9,53.5,51.9,81,84,79,1.096,47.3,48.1,46.4,0.329,0.8,202,0.4,1.5,-0.00025,-0.00037,62.9,65.2,23,0,0,.,13.71,0.00,0.00
15min,AgWx,beryljct,423,12SEP2021:05:30:00,53.5,12.7,48.9,49.1,50.5,52.8,49.1,84,86,80,1.008,45.8,47.5,44.6,3.771,2.4,294,53,4.1,0.00010,0.00017,62.8,65.2,23,0,0,.,13.71,0.00,0.00
15min,AgWx,beryljct,423,12SEP2021:05:45:00,52.7,12.69,49.3,49.4,49.2,49.6,48.8,84,85,83,0.999,44.6,45.0,44.3,1.206,2.0,316,0.1,4.1,0.00008,0.00014,62.7,65.1,23,0,0,.,13.71,0.00,0.00
15min,AgWx,beryljct,423,12SEP2021:06:00:00,52.0,12.66,51.7,51.2,49.8,51.2,49.3,83,84,79,1.016,44.7,45.1,44.5,0.417,0.5,316,0.0,1.6,0.00003,0.00005,62.6,65.1,22,0,0,.,13.71,0.00,0.00
15min,AgWx,beryljct,423,12SEP2021:06:15:00,51.5,12.66,49.0,49.0,49.9,51.3,48.9,82,86,78,1.020,44.7,45.1,44.2,0,0.0,316,0.0,0.3,0.00002,0.00002,62.5,65.0,22,2,0,.,13.71,0.00,0.00
15min,AgWx,beryljct,423,12SEP2021:06:30:00,51.1,12.67,50.1,49.9,49.7,50.1,48.9,86,88,85,1.062,45.6,46.3,45.0,0.877,0.4,316,0.0,0.9,0.00010,0.00012,62.4,65.0,23,14,0,.,13.71,0.00,0.00
15min,AgWx,beryljct,423,12SEP2021:06:45:00,51.2,12.69,51.4,50.7,50.5,51.0,49.9,84,87,83,1.046,45.8,46.5,45.4,0.46,0.7,316,0.1,1.3,0.00034,0.00038,62.2,64.9,22,52,0,.,13.71,0.00,0.00
15min,AgWx,beryljct,423,12SEP2021:07:00:00,51.8,12.71,52.0,52.1,51.4,52.1,50.8,82,85,80,1.098,46.2,47.2,45.5,1.162,1.2,316,0.1,2.0,0.00053,0.00060,62.1,64.9,23,93,0,.,13.71,0.00,0.00
15min,AgWx,beryljct,423,12SEP2021:07:15:00,53.2,12.75,55.9,54.9,53.6,54.9,52.0,83,85,80,1.187,48.4,49.7,47.1,0,0.5,316,0.1,1.5,0.00073,0.00080,62.0,64.8,23,134,0,.,13.71,0.00,0.00
15min,AgWx,beryljct,423,12SEP2021:07:30:00,55.2,12.88,55.8,56.1,55.5,56.3,54.8,82,84,77,1.258,50.0,51.0,48.9,2.039,0.8,316,0.1,2.1,0.00099,0.00108,61.9,64.8,23,181,0,.,13.71,0.00,0.00
15min,AgWx,beryljct,423,12SEP2021:07:45:00,57.6,13.11,57.3,57.5,56.9,57.6,56.1,80,83,78,1.295,50.9,52.1,49.5,1.907,1.4,316,0.1,2.3,0.00128,0.00142,61.8,64.8,23,230,0,.,13.71,0.00,0.00
15min,AgWx,beryljct,423,12SEP2021:08:00:00,60.0,13.44,59.1,59.1,58.2,59.1,57.4,76,79,71,1.237,50.6,51.6,49.4,1.929,1.4,328,5.2,2.2,0.00159,0.00177,61.7,64.7,23,280,0,.,13.71,0.00,0.00
15min,AgWx,beryljct,423,12SEP2021:08:15:00,62.3,13.76,60.5,60.7,59.8,60.7,59.0,73,77,71,1.306,51.2,53.0,49.9,0.658,0.3,330,0.0,1.6,0.00190,0.00204,61.6,64.6,23,330,0,.,13.70,0.00,0.00
15min,AgWx,beryljct,423,12SEP2021:08:30:00,64.7,14.2,62.6,62.4,61.6,62.4,60.6,70,75,67,1.307,51.9,53.9,51.0,0,0.2,330,0.0,0.7,0.00223,0.00239,61.5,64.6,22,379,0,.,13.70,0.00,0.00
15min,AgWx,beryljct,423,12SEP2021:08:45:00,67.4,14.15,64.0,64.0,63.5,64.3,62.4,67,69,62,1.281,52.3,53.9,50.9,0,0.5,330,0.0,1.5,0.00259,0.00280,61.5,64.5,23,428,0,.,13.70,0.00,0.00
15min,AgWx,beryljct,423,12SEP2021:09:00:00,69.9,14.15,69.3,65.9,65.0,65.9,64.0,63,65,60,1.317,52.2,53.9,50.3,0,0.3,330,0.0,1.4,0.00293,0.00315,60.8,64.5,22,476,0,.,13.70,0.00,0.00
15min,AgWx,beryljct,423,12SEP2021:09:15:00,72.4,14.02,67.9,68.2,67.0,68.2,66.2,60,63,57,1.432,52.8,54.2,51.4,0.197,0.8,330,0.4,2.2,0.00330,0.00359,61.6,64.4,23,521,0,.,13.69,0.00,0.00
15min,AgWx,beryljct,423,12SEP2021:09:30:00,74.3,14.04,69.4,68.7,68.2,68.7,67.7,60,67,56,1.410,53.9,57.3,52.4,1.513,2.1,117,13,3.7,0.00367,0.00409,61.8,64.4,22,566,0,.,13.69,0.00,0.00
15min,AgWx,beryljct,423,12SEP2021:09:45:00,75.9,14,69.8,70.0,69.5,70.0,68.9,56,60,52,1.421,53.2,55.1,51.4,1.776,1.8,115,8.5,3.2,0.00398,0.00442,61.9,64.4,22,606,0,.,13.69,0.00,0.00
15min,AgWx,beryljct,423,12SEP2021:10:00:00,77.2,14.06,71.3,71.5,70.8,71.5,70.0,55,60,50,1.347,53.7,55.7,51.9,1.359,2.2,105,9.9,3.5,0.00431,0.00482,61.9,64.3,23,645,0,.,13.68,0.00,0.00
15min,AgWx,beryljct,423,12SEP2021:10:15:00,78.5,13.93,72.7,72.9,72.2,72.9,71.4,52,58,48,1.441,53.6,57.3,51.1,0.877,1.9,92,2.4,3.6,0.00461,0.00512,62.2,64.3,22,683,0,.,13.68,0.00,0.00
15min,AgWx,beryljct,423,12SEP2021:10:30:00,79.9,13.52,74.2,74.4,73.7,74.8,72.9,51,56,45,1.470,54.2,57.4,51.0,0,1.7,84,8.7,3.4,0.00491,0.00543,62.4,64.2,22,719,0,.,13.68,0.00,0.00
15min,AgWx,beryljct,423,12SEP2021:10:45:00,81.4,13.5,76.2,76.3,75.2,76.3,74.4,50,56,45,1.519,55.2,58.8,52.1,1.666,2.0,81,16,3.9,0.00524,0.00582,62.4,64.2,23,758,0,.,13.67,0.00,0.00
15min,AgWx,beryljct,423,12SEP2021:11:00:00,82.9,13.47,77.7,78.1,77.4,78.1,76.3,46,52,40,1.648,55.2,58.1,50.3,3.157,3.5,87,15,6.3,0.00575,0.00656,62.7,64.2,22,805,0,.,13.67,0.00,0.00
15min,AgWx,beryljct,423,12SEP2021:11:15:00,84.1,13.43,78.7,79.4,78.8,79.4,78.1,45,51,40,1.478,55.5,59.1,52.3,9.51,6.9,118,24,12.9,0.00628,0.00751,62.8,64.2,23,845,0,.,13.67,0.00,0.00
15min,AgWx,beryljct,423,12SEP2021:11:30:00,84.9,13.44,81.9,82.2,81.2,82.4,79.1,36,46,29,1.143,51.9,56.5,46.7,7.103,10.7,185,21,20.2,0.00754,0.00946,63.2,64.1,22,941,0,.,13.67,0.00,0.00
15min,AgWx,beryljct,423,12SEP2021:11:45:00,85.2,13.46,80.6,80.0,81.3,82.2,79.9,32,37,27,1.177,48.9,52.9,44.3,10.7,9.8,198,12,14.8,0.00559,0.00738,63.5,64.1,22,593,0,.,13.67,0.00,0.00
15min,AgWx,beryljct,423,12SEP2021:12:00:00,85.1,13.43,82.9,82.6,81.7,82.6,80.1,32,39,27,1.368,48.8,53.9,45.5,8.02,8.6,184,17,15.6,0.00629,0.00799,63.8,64.1,22,743,0,.,13.67,0.00,0.00
15min,AgWx,beryljct,423,12SEP2021:12:15:00,85.0,13.42,82.0,81.2,81.5,83.4,80.0,31,35,28,1.123,48.1,53.1,44.6,9.25,8.3,183,19,15.2,0.00520,0.00681,64.0,64.2,22,546,0,.,13.67,0.00,0.00
15min,AgWx,beryljct,423,12SEP2021:12:30:00,84.2,13.48,80.3,80.0,80.8,81.5,79.5,33,37,30,1.154,49.0,52.9,46.5,8.7,9.0,187,18,19.1,0.00418,0.00577,64.3,64.2,22,365,0,.,13.67,0.00,0.00
15min,AgWx,beryljct,423,12SEP2021:12:45:00,84.1,13.44,82.8,81.7,81.9,83.7,80.0,32,36,28,1.192,48.9,52.6,46.3,7.059,10.4,182,20,18.0,0.00687,0.00884,64.5,64.2,22,824,0,.,13.68,0.00,0.00
15min,AgWx,beryljct,423,12SEP2021:13:00:00,84.1,13.42,79.6,81.4,81.1,82.8,79.6,33,41,29,1.207,49.3,55.2,45.6,2.696,9.0,177,20,13.4,0.00456,0.00619,64.7,64.2,22,433,0,.,13.68,0.00,0.00
15min,AgWx,beryljct,423,12SEP2021:13:15:00,84.5,13.42,80.7,81.4,82.3,83.5,80.9,33,39,27,1.439,50.4,54.3,45.1,8.42,9.0,193,35,15.3,0.00692,0.00868,64.9,64.2,22,849,0,.,13.67,0.00,0.00
15min,AgWx,beryljct,423,12SEP2021:13:30:00,84.5,13.45,82.2,82.4,80.0,82.4,78.1,36,41,29,1.094,50.4,55.0,46.8,8.26,10.6,155,12,17.0,0.00533,0.00710,65.0,64.3,22,583,0,.,13.68,0.00,0.00
15min,AgWx,beryljct,423,12SEP2021:13:45:00,85.1,13.42,83.3,82.7,82.7,83.6,81.6,31,36,28,1.242,48.5,52.8,45.8,9.71,10.8,189,13,19.0,0.00571,0.00770,65.2,64.3,22,597,0,.,13.68,0.00,0.00
15min,AgWx,beryljct,423,12SEP2021:14:00:00,86.0,13.42,78.8,80.7,83.3,84.5,80.7,31,35,27,1.265,49.4,52.9,46.4,7.366,8.7,188,23,18.1,0.00604,0.00779,65.3,64.4,22,699,0,.,13.68,0.00,0.00
15min,AgWx,beryljct,423,12SEP2021:14:15:00,86.9,13.35,85.7,84.9,83.2,85.1,80.4,31,39,23,1.076,49.3,54.8,43.0,2.258,8.0,188,29,15.2,0.00737,0.00911,65.4,64.4,22,915,0,.,13.68,0.00,0.00
15min,AgWx,beryljct,423,12SEP2021:14:30:00,88.4,13.29,84.2,84.9,85.0,85.6,84.6,29,33,25,1.176,48.9,52.4,45.0,7.651,9.1,203,13,16.6,0.00700,0.00892,65.6,64.5,22,817,0,.,13.68,0.00,0.00
15min,AgWx,beryljct,423,12SEP2021:14:45:00,89.1,13.3,83.2,83.6,84.4,85.3,83.5,28,34,24,1.202,48.2,52.6,44.5,11.36,10.9,208,17,19.8,0.00698,0.00914,65.6,64.5,22,785,0,.,13.68,0.00,0.00
15min,AgWx,beryljct,423,12SEP2021:15:00:00,89.2,13.32,82.2,83.3,84.1,84.7,83.2,30,34,26,1.308,49.3,52.0,46.0,8.02,9.8,194,21,15.1,0.00648,0.00843,65.8,64.6,22,739,0,.,13.68,0.00,0.00
15min,AgWx,beryljct,423,12SEP2021:15:15:00,89.2,13.31,83.7,83.8,83.6,84.5,83.0,30,36,27,1.159,49.0,53.7,45.9,10.35,10.1,214,24,15.0,0.00630,0.00826,66.0,64.6,22,714,0,.,13.68,0.00,0.00
15min,AgWx,beryljct,423,12SEP2021:15:30:00,88.9,13.3,83.3,83.1,83.4,83.9,82.8,30,36,27,1.237,49.1,53.1,46.3,13.53,10.6,220,13,16.0,0.00587,0.00785,66.1,64.7,22,643,0,.,13.68,0.00,0.00
15min,AgWx,beryljct,423,12SEP2021:15:45:00,88.5,13.34,82.3,83.1,83.3,83.8,83.0,29,33,26,1.279,48.0,51.1,45.3,8.53,10.1,212,9.2,14.7,0.00538,0.00732,66.3,64.7,22,575,0,.,13.68,0.00,0.00
15min,AgWx,beryljct,423,12SEP2021:16:00:00,88.1,13.31,84.0,83.5,83.4,84.0,82.8,29,33,24,1.094,47.8,50.8,43.2,7.98,10.1,205,10,16.1,0.00509,0.00701,66.4,64.8,21,531,0,.,13.69,0.00,0.00
15min,AgWx,beryljct,423,12SEP2021:16:15:00,87.8,13.36,83.2,83.1,83.3,84.0,82.6,28,35,24,1.066,46.6,52.6,43.1,6.489,9.8,208,17,16.2,0.00472,0.00660,66.5,64.8,22,480,0,.,13.68,0.00,0.00
15min,AgWx,beryljct,423,12SEP2021:16:30:00,87.3,13.34,82.1,82.6,82.7,83.8,81.8,29,32,26,1.103,47.0,49.6,44.7,8.99,10.4,220,16,16.3,0.00441,0.00630,66.6,64.9,22,430,0,.,13.68,0.00,0.00
15min,AgWx,beryljct,423,12SEP2021:16:45:00,86.8,13.36,82.3,82.2,82.8,83.1,82.2,28,30,25,1.107,45.9,48.7,43.5,11.71,10.1,207,11,15.4,0.00408,0.00594,66.7,64.9,22,381,0,.,13.69,0.00,0.00
15min,AgWx,beryljct,423,12SEP2021:17:00:00,86.3,13.39,82.3,82.6,82.7,83.4,81.8,27,32,24,1.079,45.4,49.0,42.3,8.11,9.8,198,18,17.5,0.00371,0.00553,66.7,65.0,22,331,0,.,13.69,0.00,0.00
15min,AgWx,beryljct,423,12SEP2021:17:15:00,85.9,13.39,80.7,81.2,82.6,83.2,81.2,27,30,25,1.083,45.1,47.4,43.2,7.256,10.2,196,19,15.9,0.00345,0.00531,66.8,65.1,22,282,0,.,13.68,0.00,0.00
15min,AgWx,beryljct,423,12SEP2021:17:30:00,85.1,13.38,81.7,81.3,81.2,82.1,80.2,28,32,25,0.940,45.1,47.7,42.3,10.11,9.6,219,9.2,14.6,0.00294,0.00462,66.7,65.1,22,234,0,.,13.69,0.00,0.00
15min,AgWx,beryljct,423,12SEP2021:17:45:00,84.4,13.42,80.8,81.8,81.9,82.3,81.4,25,27,24,0.957,42.7,44.5,41.5,8.24,10.7,196,9.7,15.2,0.00291,0.00482,66.7,65.2,22,185,0,.,13.68,0.00,0.00
15min,AgWx,beryljct,423,12SEP2021:18:00:00,83.6,13.23,81.9,81.5,81.4,81.9,80.8,26,29,23,0.855,43.0,45.9,40.5,13.15,9.3,195,7.6,15.6,0.00152,0.00202,66.7,65.3,22,139,0,.,13.69,0.00,0.00
15min,AgWx,beryljct,423,12SEP2021:18:15:00,82.8,13.13,80.4,80.4,80.6,81.8,79.9,25,27,23,0.858,42.0,43.3,40.6,9.73,8.8,188,6.8,14.8,0.00137,0.00184,66.7,65.3,22,97,0,.,13.69,0.00,0.00
15min,AgWx,beryljct,423,12SEP2021:18:30:00,81.5,13.06,78.7,79.1,79.5,80.4,79.0,25,26,24,0.832,40.8,42.5,39.6,4.889,5.9,175,6.9,8.5,0.00091,0.00131,66.7,65.4,22,59,0,.,13.69,0.00,0.00
15min,AgWx,beryljct,423,12SEP2021:18:45:00,79.9,13,77.1,77.3,78.0,79.1,77.3,26,27,24,0.835,39.9,40.7,38.9,7.673,7.1,175,8.9,9.2,0.00090,0.00127,66.6,65.4,21,15,0,.,13.69,0.00,0.00
15min,AgWx,beryljct,423,12SEP2021:19:00:00,78.2,12.97,71.5,74.5,76.3,77.3,74.5,27,33,26,0.955,40.1,43.4,39.0,4.056,5.8,181,6.8,8.0,0.00067,0.00098,66.6,65.5,22,3,0,.,13.69,0.00,0.00
15min,AgWx,beryljct,423,12SEP2021:19:15:00,76.2,12.97,71.0,71.3,73.5,74.7,71.3,31,35,28,0.888,40.8,43.7,39.6,4.275,4.6,166,3.6,5.7,0.00043,0.00066,66.6,65.5,22,0,0,.,13.69,0.00,0.00
15min,AgWx,beryljct,423,12SEP2021:19:30:00,74.1,12.96,69.6,70.9,71.2,71.5,70.9,32,34,30,0.839,39.8,41.7,38.2,2.894,3.7,170,1.5,4.8,0.00028,0.00046,66.5,65.6,22,0,0,.,13.70,0.00,0.00
15min,AgWx,beryljct,423,12SEP2021:19:45:00,72.4,12.95,70.3,69.3,70.0,70.7,69.2,32,35,31,0.828,39.1,40.4,38.3,5.371,3.5,174,1.9,5.4,0.00023,0.00038,66.5,65.6,22,0,0,.,13.70,0.00,0.00
15min,AgWx,beryljct,423,12SEP2021:20:00:00,71.1,12.94,68.8,68.9,69.7,71.8,67.2,33,40,30,0.773,39.4,42.6,37.9,3.442,3.9,178,4.9,5.7,0.00029,0.00047,66.4,65.6,22,0,0,.,13.70,0.00,0.00
15min,AgWx,beryljct,423,12SEP2021:20:15:00,70.0,12.93,64.4,63.6,68.6,70.7,63.4,36,50,31,0.973,40.3,45.0,38.1,3.793,3.9,182,2.0,4.9,0.00027,0.00043,66.3,65.7,22,0,0,.,13.70,0.00,0.00
15min,AgWx,beryljct,423,12SEP2021:20:30:00,68.7,12.92,68.8,68.3,68.1,69.8,63.6,37,48,33,0.846,40.5,43.6,39.4,3.529,3.4,183,2.2,3.8,0.00019,0.00032,64.2,65.7,22,0,0,.,13.70,0.00,0.00
15min,AgWx,beryljct,423,12SEP2021:20:45:00,67.7,12.92,65.5,65.8,66.9,70.0,64.3,39,47,33,0.839,41.2,44.7,39.4,4.165,3.8,160,13,5.9,0.00022,0.00036,64.6,65.8,22,0,0,.,13.70,0.00,0.00
15min,AgWx,beryljct,423,12SEP2021:21:00:00,66.1,12.91,57.9,57.6,61.4,65.8,57.2,52,65,39,1.029,43.3,45.5,40.0,4.735,4.5,152,4.3,5.1,0.00019,0.00029,65.8,65.8,21,0,0,.,13.71,0.00,0.00
15min,AgWx,beryljct,423,12SEP2021:21:15:00,64.2,12.91,57.5,57.9,57.8,58.2,57.4,63,64,61,1.003,45.2,45.5,44.7,3.091,4.0,157,2.3,4.8,0.00005,0.00010,65.7,65.8,22,0,0,.,13.71,0.00,0.00
15min,AgWx,beryljct,423,12SEP2021:21:30:00,62.8,12.9,60.7,60.0,59.3,60.0,57.7,56,62,53,0.944,43.4,44.9,42.8,4.911,4.3,159,0.4,5.3,0.00012,0.00020,65.6,65.8,22,0,0,.,13.71,0.00,0.00
15min,AgWx,beryljct,423,12SEP2021:21:45:00,62.1,12.89,61.1,61.0,61.0,62.2,60.1,49,53,47,0.861,41.9,43.0,40.7,3.99,4.1,162,0.5,5.6,0.00016,0.00026,65.4,65.8,22,0,0,.,13.71,0.00,0.00
15min,AgWx,beryljct,423,12SEP2021:22:00:00,61.8,12.89,59.8,59.8,60.7,61.4,59.8,48,50,46,0.874,40.7,41.3,40.4,3.99,4.6,177,14,5.5,0.00021,0.00032,65.2,65.8,22,0,0,.,13.71,0.00,0.00
15min,AgWx,beryljct,423,12SEP2021:22:15:00,61.5,12.89,63.6,62.5,61.3,62.5,59.8,47,50,44,0.846,40.9,41.4,40.2,3.551,3.7,190,0.9,5.0,0.00014,0.00023,65.1,65.8,22,0,0,.,13.71,0.00,0.00
15min,AgWx,beryljct,423,12SEP2021:22:30:00,61.4,12.88,60.1,60.2,61.2,63.3,59.6,47,51,42,0.851,40.9,42.2,40.0,3.376,3.0,189,0.2,3.8,0.00006,0.00013,64.9,65.8,22,0,0,.,13.71,0.00,0.00
15min,AgWx,beryljct,423,12SEP2021:22:45:00,61.0,12.88,57.9,57.5,60.1,61.2,57.5,49,57,47,0.921,41.0,42.7,40.1,5.437,3.9,183,5.3,5.4,0.00013,0.00022,64.8,65.8,22,0,0,.,13.71,0.00,0.00
15min,AgWx,beryljct,423,12SEP2021:23:00:00,60.5,12.87,58.4,58.4,58.1,58.4,57.6,51,57,46,0.771,40.1,42.4,37.4,6.335,5.3,192,0.8,6.5,0.00022,0.00032,64.6,65.8,22,0,0,.,13.71,0.00,0.00
15min,AgWx,beryljct,423,12SEP2021:23:15:00,60.0,12.86,56.3,56.1,57.1,58.4,55.9,51,55,46,0.811,39.3,40.5,37.9,4.209,4.3,247,61,6.3,0.00015,0.00023,64.4,65.8,22,0,0,.,13.71,0.00,0.00
15min,AgWx,beryljct,423,12SEP2021:23:30:00,59.2,12.86,58.3,57.7,56.8,57.8,56.0,50,53,48,0.784,38.5,39.2,37.9,0,2.5,307,0.1,5.2,-0.00001,0.00002,64.3,65.8,22,0,0,.,13.71,0.00,0.00
15min,AgWx,beryljct,423,12SEP2021:23:45:00,58.6,12.85,55.1,55.6,57.9,58.8,55.6,49,57,45,0.864,38.8,41.2,37.5,0,0.2,307,0.0,1.4,-0.00035,-0.00054,64.2,65.7,22,0,0,.,13.71,0.00,0.00
15min,AgWx,bigpiney,439,12SEP2021:00:00:00,47.3,12.57,42.2,42.4,42.8,44.5,42.1,86,88,82,0.802,38.9,40.0,37.8,0.175,1.8,64,24,4.3,-0.00015,-0.00019,54.0,53.3,46,0,0,0.0,4.47,0.00,0.00
15min,AgWx,bigpiney,439,12SEP2021:00:15:00,46.7,12.57,39.4,41.7,42.5,42.9,41.7,87,88,86,0.768,39.0,39.6,37.8,5.349,2.8,136,24,6.3,-0.00012,-0.00014,53.9,53.3,46,0,0,0.0,4.47,0.00,0.00
15min,AgWx,bigpiney,439,12SEP2021:00:30:00,45.9,12.56,39.5,39.5,39.6,41.4,38.7,89,91,84,0.745,36.5,37.3,35.3,3.595,5.0,202,12,6.0,-0.00006,-0.00007,53.9,53.3,46,0,0,0.0,4.47,0.00,0.00
15min,AgWx,bigpiney,439,12SEP2021:00:45:00,45.1,12.55,42.3,42.1,40.6,42.1,39.2,91,92,89,0.814,38.1,39.2,36.7,2.828,1.7,274,56,3.9,-0.00016,-0.00021,53.8,53.3,46,0,0,0.0,4.47,0.00,0.00
15min,AgWx,bigpiney,439,12SEP2021:01:00:00,44.7,12.53,40.2,40.1,41.0,42.2,39.5,89,91,88,0.762,37.9,39.2,36.6,4.077,5.1,212,9.4,6.7,-0.00006,-0.00007,53.7,53.2,46,0,0,0.0,4.47,0.00,0.00
15min,AgWx,bigpiney,439,12SEP2021:01:15:00,44.1,12.54,39.6,39.1,39.9,41.3,38.4,90,91,87,0.735,37.1,38.8,35.3,4.428,5.3,209,10,6.8,-0.00006,-0.00007,53.6,53.2,46,0,0,0.0,4.47,0.00,0.00
15min,AgWx,bigpiney,439,12SEP2021:01:30:00,43.5,12.52,41.7,40.7,38.9,40.9,37.7,91,93,90,0.795,36.5,38.9,35.1,1.907,4.0,254,50,5.6,-0.00009,-0.00010,53.6,53.2,46,0,0,0.0,4.47,0.00,0.00
15min,AgWx,bigpiney,439,12SEP2021:01:45:00,43.0,12.51,39.8,39.9,41.6,42.8,39.4,88,93,84,0.751,38.3,40.2,35.5,2.389,2.2,342,64,3.4,-0.00014,-0.00017,53.5,53.1,46,0,0,0.0,4.47,0.00,0.00
15min,AgWx,bigpiney,439,12SEP2021:02:00:00,42.8,12.5,40.6,40.2,40.4,41.0,39.7,91,92,90,0.768,37.9,38.8,37.0,0.658,1.1,0.7,81,2.9,-0.00018,-0.00025,53.4,53.1,46,0,0,0.0,4.47,0.00,0.00
15min,AgWx,bigpiney,439,12SEP2021:02:15:00,42.5,12.47,42.1,41.7,40.6,41.7,39.2,92,93,90,0.816,38.4,39.3,36.5,2.981,2.3,231,12,3.9,-0.00014,-0.00018,53.3,53.1,46,0,1,0.0,4.47,0.00,0.00
15min,AgWx,bigpiney,439,12SEP2021:02:30:00,42.2,12.49,43.0,41.3,41.1,42.1,39.4,90,92,89,0.811,38.4,39.6,36.6,2.959,4.0,231,11,5.5,-0.00009,-0.00011,53.3,53.1,46,0,1,0.0,4.47,0.00,0.00
15min,AgWx,bigpiney,439,12SEP2021:02:45:00,41.9,12.47,41.0,41.7,40.2,42.1,39.0,91,93,89,0.815,37.9,40.3,36.1,3.003,3.9,265,9.3,5.3,-0.00010,-0.00011,53.2,53.1,46,0,0,0.0,4.47,0.00,0.00
15min,AgWx,bigpiney,439,12SEP2021:03:00:00,41.9,12.46,42.8,43.3,41.5,43.4,39.9,90,91,87,0.826,38.7,40.2,36.7,3.069,2.9,265,13,5.2,-0.00012,-0.00014,53.1,53.0,46,0,0,0.0,4.47,0.00,0.00
15min,AgWx,bigpiney,439,12SEP2021:03:15:00,41.9,12.45,43.4,43.3,42.7,43.8,41.2,88,90,83,0.829,39.3,40.5,36.5,3.201,2.9,216,8.2,3.9,-0.00011,-0.00014,53.0,53.0,46,0,0,0.0,4.47,0.00,0.00
15min,AgWx,bigpiney,439,12SEP2021:03:30:00,41.8,12.44,39.8,39.9,40.6,43.4,37.8,88,91,84,0.752,37.3,39.7,33.7,0,1.3,267,50,3.2,-0.00017,-0.00023,53.0,53.0,46,0,0,0.0,4.47,0.00,0.00
15min,AgWx,bigpiney,439,12SEP2021:03:45:00,41.5,12.44,38.1,38.1,38.5,39.9,37.8,91,93,87,0.722,36.2,37.2,34.4,0,0.4,348,2.8,2.3,-0.00021,-0.00032,52.9,52.9,46,0,1,0.0,4.47,0.00,0.00
15min,AgWx,bigpiney,439,12SEP2021:04:00:00,41.2,12.42,39.3,39.7,38.3,40.1,37.3,94,94,93,0.781,36.6,38.6,35.6,1.929,1.7,218,8.8,4.0,-0.00016,-0.00021,52.8,52.9,46,0,1,0.0,4.47,0.00,0.00
15min,AgWx,bigpiney,439,12SEP2021:04:15:00,40.9,12.4,40.5,40.5,39.9,40.6,39.3,93,94,92,0.790,38.1,38.8,37.6,2.85,0.7,117,55,2.9,-0.00020,-0.00030,52.8,52.9,46,0,1,0.0,4.47,0.00,0.00
15min,AgWx,bigpiney,439,12SEP2021:04:30:00,40.7,12.4,36.1,35.5,36.6,40.4,34.8,91,93,89,0.653,34.3,38.4,32.5,4.626,4.7,169,20,6.4,-0.00008,-0.00008,52.7,52.8,46,0,1,0.0,4.47,0.00,0.00
15min,AgWx,bigpiney,439,12SEP2021:04:45:00,40.2,12.4,38.6,36.9,35.8,36.9,35.0,93,94,93,0.699,34.1,35.4,33.2,4.845,4.2,206,12,5.6,-0.00009,-0.00011,52.6,52.8,46,0,1,0.0,4.47,0.00,0.00
15min,AgWx,bigpiney,439,12SEP2021:05:00:00,39.8,12.39,38.4,38.0,37.8,38.7,36.6,94,95,93,0.724,36.2,37.3,34.9,2.039,2.6,210,17,4.6,-0.00013,-0.00017,52.5,52.8,46,0,1,0.0,4.47,0.00,0.00
15min,AgWx,bigpiney,439,12SEP2021:05:15:00,39.9,12.38,42.3,40.7,39.0,41.1,38.1,93,93,92,0.796,37.2,39.2,36.3,1.359,1.0,179,28,2.7,-0.00018,-0.00026,52.5,52.8,46,0,1,0.0,4.47,0.00,0.00
15min,AgWx,bigpiney,439,12SEP2021:05:30:00,40.1,12.36,38.6,38.8,39.9,41.5,38.8,91,92,88,0.723,37.4,39.4,36.2,2.718,2.1,2.0,22,3.4,-0.00014,-0.00019,52.4,52.8,46,0,1,0.0,4.47,0.00,0.00
15min,AgWx,bigpiney,439,12SEP2021:05:45:00,40.1,12.36,37.7,37.1,37.6,38.8,36.6,92,93,90,0.698,35.4,36.2,34.6,0,1.1,278,35,2.6,-0.00017,-0.00024,52.3,52.7,46,0,1,0.0,4.47,0.00,0.00
15min,AgWx,bigpiney,439,12SEP2021:06:00:00,40.1,12.35,38.6,38.2,37.8,38.2,37.2,94,94,93,0.734,36.2,36.6,35.4,1.25,0.9,214,21,2.5,-0.00018,-0.00026,52.3,52.6,46,3,1,0.0,4.47,0.00,0.00
15min,AgWx,bigpiney,439,12SEP2021:06:15:00,40.1,12.36,39.1,38.7,38.4,38.8,38.1,94,94,94,0.745,36.8,37.3,36.5,2.258,2.5,216,17,3.6,-0.00023,-0.00022,52.2,52.6,46,11,1,0.0,4.47,0.00,0.00
15min,AgWx,bigpiney,439,12SEP2021:06:30:00,40.1,12.4,39.6,39.0,38.6,39.4,37.9,93,94,92,0.753,36.8,37.7,35.9,1.951,2.7,311,21,4.7,-0.00019,-0.00018,52.1,52.6,46,30,1,0.0,4.47,0.00,0.00
15min,AgWx,bigpiney,439,12SEP2021:06:45:00,40.2,12.43,39.0,39.1,39.0,39.3,38.6,93,94,93,0.752,37.1,37.5,36.7,2.017,1.9,266,38,2.6,-0.00007,-0.00006,52.0,52.6,46,64,1,0.0,4.47,0.00,0.00
15min,AgWx,bigpiney,439,12SEP2021:07:00:00,40.7,12.56,42.8,42.6,41.1,42.6,39.0,93,94,91,0.841,39.1,40.2,37.0,1.162,1.9,256,9.1,2.8,0.00026,0.00029,52.0,52.5,46,141,1,0.0,4.47,0.00,0.00
15min,AgWx,bigpiney,439,12SEP2021:07:15:00,41.8,12.83,44.0,43.8,43.5,44.0,42.6,88,91,85,0.821,40.0,40.8,39.5,0.066,0.5,236,15,1.8,0.00043,0.00046,51.9,52.5,46,171,1,0.0,4.47,0.00,0.00
15min,AgWx,bigpiney,439,12SEP2021:07:30:00,43.1,13.32,45.2,44.7,44.4,44.9,43.8,85,86,83,0.852,40.0,41.0,39.3,1.271,0.7,198,16,2.3,0.00068,0.00074,51.9,52.5,46,216,1,0.0,4.47,0.00,0.00
15min,AgWx,bigpiney,439,12SEP2021:07:45:00,44.9,13.54,46.6,45.9,45.3,46.5,44.6,83,85,82,0.876,40.6,41.8,40.0,0.088,0.9,211,35,2.5,0.00095,0.00103,51.8,52.4,46,261,1,0.0,4.47,0.00,0.00
15min,AgWx,bigpiney,439,12SEP2021:08:00:00,46.9,13.32,47.4,47.5,46.7,47.7,45.9,82,84,80,0.892,41.5,42.5,40.8,0,1.1,217,21,2.6,0.00108,0.00118,51.7,52.4,46,258,1,0.0,4.47,0.00,0.00
15min,AgWx,bigpiney,439,12SEP2021:08:15:00,49.0,14.56,50.9,50.0,48.4,50.0,47.5,80,83,79,0.979,42.6,44.0,41.4,0,0.0,210,18,0.7,0.00154,0.00164,51.7,52.4,46,351,0,0.0,4.47,0.00,0.00